Location: Agadir-Ikarkaouin
(31.1503°N, 9.0246°W)
Time: 03:41:05
(UTC+00:00)

Delta 168 - Pass Details

Date: 18 September 2020
Orbit: 394 x 2050 km, 25.3° (Epoch: 23 October)

Event Time Altitude Azimuth Distance (km) Brightness Sun altitude
Rises 19:00:55 0° 266° (W) 3,284 9.0 -5.9°
Reaches altitude 10° 19:04:07 10° 254° (WSW) 2,075 7.1 -6.5°
Maximum altitude 19:07:56 25° 198° (SSW) 1,095 4.5 -7.3°
Drops below altitude 10° 19:10:55 10° 141° (SE) 1,591 4.8 -8.0°
Enters shadow 19:11:45 - 133° (SE) 1,873 5.1 -8.2°
